[[{"header":{"parameterUnit":"m.s-1","parameterCategory":1,"la1":30.2991,"la2":30.254,"lo1":-89.0895,"lo2":-89.0444,"dy":0.0017,"dx":0.0017,"nx":28,"ny":28,"refTime":"2024-12-12T09:00:00:Z","depth":0,"parameterNumber":2,"parameterNumberName":"U-component_of_WINDS"},"data":[0,0,0,0,0,0,0,0,0,0,0,0,0,0,0,0,0,0,0,0,0,0,0,0,0,0,0,0,0,0,0,0,0,0,0,0,0,0,0,0,0,0,0,0,0,0,0,0,0,0,0,0,0,0,0,0,0,0,-4.1058,-4.1059,0,-4.1099,-4.11,-4.11,-4.0971,-4.0967,-4.0963,-4.096,-4.1002,-4.1007,-4.1011,0,0,0,0,0,0,0,0,0,0,0,0,0,-4.0866,-4.087,-4.1058,-4.1059,-4.1059,-4.1099,-4.11,-4.11,-4.0972,-4.0967,-4.0962,-4.0958,-4.1,-4.1006,-4.1012,0,0,0,0,0,0,0,0,0,0,0,0,0,-4.0933,-4.0872,-4.1058,-4.1,-4.0995,-4.1099,-4.11,-4.1101,-4.0973,-4.0967,-4.0961,-4.0955,-4.0999,-4.1006,-4.1013,-4.1175,0,0,-4.1035,-4.1038,0,0,0,0,0,0,0,0,-4.0929,-4.094,-4.1008,-4.1004,-4.0999,-4.1024,-4.1048,-4.1126,-4.0974,-4.0981,-4.0959,-4.0953,-4.1014,-4.102,-4.104,-4.1177,-4.1179,-4.1035,-4.104,-4.1043,-4.1045,0,0,0,0,0,0,0,-4.0925,-4.0937,-4.1074,-4.1009,-4.1003,-4.0971,-4.0974,-4.1062,-4.103,-4.098,-4.0971,-4.0978,-4.101,-4.1034,-4.104,-4.118,-4.1035,-4.1041,-4.1046,-4.1049,-4.1449,-4.1455,0,0,0,0,0,0,-4.0928,-4.0934,-4.1073,-4.1076,-4.0949,-4.0979,-4.0983,-4.1022,-4.1029,-4.1024,-4.0983,-4.0971,-4.1024,-4.1032,-4.1041,-4.123,-4.1043,-4.1049,-4.1053,-4.1443,-4.1451,-4.1457,0,0,0,0,0,0,-4.0924,-4.0941,-4.1071,-4.1002,-4.1017,-4.0989,-4.1034,-4.1026,-4.1049,-4.1031,-4.1024,-4.1012,-4.102,-4.1031,-4.1142,-4.123,-4.1053,-4.1059,-4.1435,-4.1445,-4.1454,-4.1611,0,0,0,0,0,0,-4.0919,-4.0941,-4.1003,-4.1005,-4.1021,-4.1173,-4.104,-4.1031,-4.1062,-4.1047,-4.1057,-4.1053,-4.1016,-4.1132,-4.1149,-4.1237,-4.1065,-4.1427,-4.144,-4.1451,-4.1598,-4.1625,-4.1648,0,0,0,0,0,-4.0913,-4.1046,-4.1007,-4.1024,-4.1098,-4.1178,-4.1187,-4.1142,-4.1069,-4.1131,-4.1119,-4.1052,-4.1218,-4.1145,-4.1163,-4.1254,-4.1422,-4.1436,-4.145,-4.1587,-4.162,-4.1647,0,0,0,0,0,0,-4.1056,-4.1045,-4.1002,-4.1139,-4.1161,-4.1156,-4.1232,-4.1179,-4.1221,-4.1206,-4.1148,-4.1152,-4.1273,-4.1274,-4.1193,-4.141,-4.1307,-4.1326,-4.1405,-4.1436,-4.146,-4.1457,-4.1071,0,0,0,0,0,-4.1103,-4.1169,-4.1156,-4.1279,-4.1292,-4.1261,-4.1294,-4.1258,-4.1277,-4.1285,-4.1281,-4.1303,-4.1359,-4.1398,-4.1449,-4.1598,-4.1597,-4.1669,-4.1694,-4.1715,-4.1731,-4.1808,-4.184,-4.1504,-4.1504,-4.1504,0,0,-4.1202,-4.1204,-4.125,-4.1308,-4.132,-4.1389,-4.1269,-4.1348,-4.1398,-4.1297,-4.1401,-4.14,-4.1419,-4.155,-4.1607,-4.1555,-4.1824,-4.1733,-4.1749,-4.1755,-4.1826,-4.1858,-4.1886,-4.1514,-4.1512,-4.151,0,0,-4.1417,-4.1427,-4.1529,-4.1543,-4.1562,-4.154,-4.1565,-4.1569,-4.1563,-4.1667,-4.1592,-4.1651,-4.175,-4.1766,-4.1788,-4.2008,-4.1948,-4.2026,-4.2156,-4.2232,-4.2258,-4.2281,-4.2358,-4.2387,-4.2042,-4.2043,-4.2043,0,-4.1538,-4.1639,-4.1588,-4.1672,-4.1699,-4.161,-4.1712,-4.1729,-4.1764,-4.1785,-4.1726,-4.1847,-4.1854,-4.1986,-4.204,-4.206,-4.2086,-4.2024,-4.2259,-4.2281,-4.2302,-4.2375,-4.2404,-4.2052,-4.2051,-4.205,-4.2049,0,-4.1785,-4.1857,-4.1937,-4.1973,-4.2009,-4.2102,-4.2064,-4.2107,-4.2067,-4.2051,-4.2157,-4.2162,-4.2212,-4.2241,-4.2203,-4.2367,-4.2334,-4.2268,-4.2163,-4.2344,-4.2412,-4.2439,-4.2066,-4.2062,-4.2059,-4.2057,0,0,-4.2093,-4.2098,-4.2128,-4.2142,-4.2156,-4.221,-4.2298,-4.2347,-4.2384,-4.2411,-4.2482,-4.2567,-4.2506,-4.253,-4.2493,-4.256,-4.2732,-4.2485,-4.2485,-4.253,-4.2912,-4.2961,-4.2994,-4.2692,-4.2698,-4.2702,-4.2909,0,-4.2304,-4.2454,-4.241,-4.2561,-4.2626,-4.2541,-4.2618,-4.2634,-4.2622,-4.2674,-4.2659,-4.272,-4.2635,-4.2648,-4.2711,-4.2698,-4.2808,-4.2683,-4.2758,-4.2761,-4.2755,-4.3029,-4.3082,-4.3278,-4.2936,-4.294,-4.2943,0,-4.257,-4.2606,-4.2764,-4.2765,-4.2791,-4.286,-4.29,-4.2951,-4.2968,-4.2953,-4.2981,-4.2929,-4.3015,-4.291,-4.3026,-4.2942,-4.297,-4.2968,-4.2975,-4.2979,-4.2863,-4.3041,-4.334,-4.3369,-4.2985,-4.2981,-4.2978,0,-4.2777,-4.2865,-4.297,-4.2985,-4.299,-4.3041,-4.3045,-4.3055,-4.3087,-4.3121,-4.3141,-4.3185,-4.321,-4.3245,-4.3207,-4.3134,-4.3329,-4.3221,-4.3318,-4.332,-4.3363,-4.3361,-4.367,-4.3383,-4.3383,-4.3382,-4.3381,0,-4.3016,-4.3116,-4.3063,-4.3128,-4.3236,-4.3184,-4.3292,-4.3287,-4.3297,-4.3358,-4.3288,-4.3348,-4.3294,-4.3348,-4.3319,-4.3419,-4.3431,-4.3421,-4.3412,-4.3427,-4.3428,-4.3444,-4.3429,-4.339,-4.3388,-4.3387,-4.3385,0,-4.3266,-4.3235,-4.3343,-4.3338,-4.3339,-4.3419,-4.3414,-4.3473,-4.3455,-4.3534,-4.3549,-4.352,-4.358,-4.3545,-4.3607,-4.3587,-4.3717,-4.369,-4.3712,-4.3704,-4.3803,-4.3794,-4.4133,-4.4174,-4.3862,-4.3865,-4.3867,0,-4.342,-4.3494,-4.3497,-4.3533,-4.3542,-4.3601,-4.3632,-4.3583,-4.3618,-4.3641,-4.3698,-4.3751,-4.3792,-4.3891,-4.3876,-4.3922,-4.3895,-4.401,-4.3901,-4.3913,-4.3895,-4.3891,-4.3897,-4.4032,-4.4036,-4.4039,-4.4041,0,-4.3698,-4.3678,-4.3725,-4.3768,-4.3806,-4.3837,-4.3862,-4.3896,-4.3847,-4.389,-4.395,-4.3981,-4.4043,-4.4097,-4.4136,-4.4139,-4.4083,-4.4075,-4.41,-4.4116,-4.4125,-4.412,-4.377,-4.4068,-4.4065,-4.4063,-4.4062,-4.4061,-4.3903,-4.3965,-4.3976,-4.403,-4.4044,-4.4068,-4.4123,-4.4111,-4.416,-4.4206,-4.4174,-4.4245,-4.4258,-4.4304,-4.4315,-4.4369,-4.4323,-4.4359,-4.4368,-4.4378,-4.4391,-4.4117,-4.4376,-4.4375,-4.4375,-4.4374,-4.4373,0,-4.4176,-4.4178,-4.4229,-4.4266,-4.4309,-4.425,-4.4274,-4.4314,-4.4377,-4.4394,-4.4434,-4.4503,-4.4554,-4.4542,-4.4588,-4.4634,-4.4609,-4.4647,-4.4643,-4.4645,-4.443,-4.4404,-4.4667,-4.4667,-4.4667,-4.4667,-4.4667,-4.4667,-4.4323,-4.4423,-4.4405,-4.451,-4.4511,-4.458,-4.4598,-4.462,-4.4633,-4.4712,-4.4754,-4.4746,-4.475,-4.4796,-4.484,-4.4835,-4.4855,-4.4904,-4.4889,-4.4689,-4.466,-4.4632,-4.4607,-4.4909,-4.4909,-4.5099,-4.51,-4.5102]},{"header":{"parameterUnit":"m.s-1","parameterCategory":1,"la1":30.2991,"la2":30.254,"lo1":-89.0895,"lo2":-89.0444,"dy":0.0017,"dx":0.0017,"nx":28,"ny":28,"refTime":"2024-12-12T09:00:00:Z","depth":0,"parameterNumber":3,"parameterNumberName":"V-component_of_WINDS"},"data":[0,0,0,0,0,0,0,0,0,0,0,0,0,0,0,0,0,0,0,0,0,0,0,0,0,0,0,0,0,0,0,0,0,0,0,0,0,0,0,0,0,0,0,0,0,0,0,0,0,0,0,0,0,0,0,0,0,0,-0.4045,-0.4046,0,-0.4134,-0.4135,-0.4136,-0.4174,-0.4174,-0.4174,-0.4173,-0.4266,-0.4268,-0.4271,0,0,0,0,0,0,0,0,0,0,0,0,0,-0.3908,-0.391,-0.4045,-0.4046,-0.4048,-0.4134,-0.4135,-0.4136,-0.4174,-0.4174,-0.4173,-0.4173,-0.4265,-0.4268,-0.4271,0,0,0,0,0,0,0,0,0,0,0,0,0,-0.3979,-0.3911,-0.4045,-0.4077,-0.408,-0.4134,-0.4135,-0.4137,-0.4174,-0.4174,-0.4173,-0.4173,-0.4264,-0.4267,-0.4271,-0.43,0,0,-0.4283,-0.4285,0,0,0,0,0,0,0,0,-0.3975,-0.3984,-0.4071,-0.4075,-0.4079,-0.4143,-0.4121,-0.4192,-0.4174,-0.4138,-0.4173,-0.4173,-0.4225,-0.4232,-0.4249,-0.4305,-0.4309,-0.4284,-0.4286,-0.4288,-0.4289,0,0,0,0,0,0,0,-0.397,-0.3981,-0.4081,-0.4072,-0.4077,-0.4086,-0.4096,-0.4134,-0.4182,-0.4142,-0.4144,-0.4154,-0.4227,-0.4245,-0.4252,-0.431,-0.4283,-0.4287,-0.4289,-0.4291,-0.4392,-0.4393,0,0,0,0,0,0,-0.396,-0.3976,-0.4078,-0.4083,-0.4025,-0.4089,-0.41,-0.4122,-0.4182,-0.419,-0.4154,-0.4156,-0.4239,-0.4247,-0.4255,-0.4292,-0.4288,-0.4291,-0.4294,-0.4392,-0.4392,-0.4393,0,0,0,0,0,0,-0.3957,-0.3969,-0.4074,-0.4031,-0.4045,-0.4092,-0.4116,-0.4124,-0.4143,-0.4191,-0.42,-0.4164,-0.4239,-0.425,-0.4288,-0.4296,-0.4293,-0.4297,-0.4391,-0.4392,-0.4392,-0.4367,0,0,0,0,0,0,-0.3953,-0.3967,-0.3979,-0.4031,-0.4047,-0.4106,-0.4117,-0.4126,-0.4149,-0.4152,-0.4203,-0.4211,-0.424,-0.4282,-0.4292,-0.4301,-0.43,-0.4391,-0.4392,-0.4392,-0.4368,-0.4367,-0.4366,0,0,0,0,0,-0.3948,-0.3969,-0.398,-0.3992,-0.4063,-0.4106,-0.4116,-0.4147,-0.415,-0.4162,-0.4193,-0.421,-0.4293,-0.4286,-0.4298,-0.4308,-0.4391,-0.4392,-0.4392,-0.4368,-0.4367,-0.4366,0,0,0,0,0,0,-0.3919,-0.3977,-0.3989,-0.4027,-0.4061,-0.4113,-0.4129,-0.4146,-0.418,-0.4181,-0.4219,-0.423,-0.4266,-0.4291,-0.4282,-0.4338,-0.4343,-0.4346,-0.4321,-0.4321,-0.432,-0.4313,-0.4303,0,0,0,0,0,-0.3916,-0.3947,-0.3996,-0.4025,-0.4042,-0.4082,-0.4103,-0.4124,-0.4161,-0.4176,-0.421,-0.4245,-0.4279,-0.4301,-0.4336,-0.4371,-0.4383,-0.4384,-0.4383,-0.4382,-0.4385,-0.4404,-0.4405,-0.4395,-0.4395,-0.4395,0,0,-0.3913,-0.3948,-0.3965,-0.402,-0.4049,-0.408,-0.4094,-0.4127,-0.415,-0.4181,-0.4219,-0.4245,-0.4287,-0.4324,-0.4342,-0.4346,-0.439,-0.4383,-0.4382,-0.4385,-0.4405,-0.4406,-0.4407,-0.4396,-0.4396,-0.4396,0,0,-0.3922,-0.3952,-0.3979,-0.4007,-0.405,-0.4077,-0.4083,-0.4131,-0.4149,-0.4188,-0.4212,-0.424,-0.4298,-0.4327,-0.4349,-0.4366,-0.4383,-0.4376,-0.4373,-0.4391,-0.4392,-0.4393,-0.4399,-0.44,-0.4378,-0.4378,-0.4378,0,-0.3912,-0.3959,-0.3991,-0.4021,-0.4044,-0.4072,-0.41,-0.4126,-0.4178,-0.4194,-0.4197,-0.4269,-0.43,-0.4343,-0.4347,-0.4364,-0.4373,-0.4371,-0.4389,-0.4391,-0.4392,-0.4398,-0.44,-0.4377,-0.4377,-0.4377,-0.4377,0,-0.3944,-0.3976,-0.3993,-0.4042,-0.4067,-0.4096,-0.4131,-0.4153,-0.4171,-0.4197,-0.4235,-0.4272,-0.4314,-0.4326,-0.4344,-0.4372,-0.4373,-0.4382,-0.4388,-0.4391,-0.4397,-0.44,-0.4375,-0.4376,-0.4376,-0.4376,0,0,-0.3939,-0.4003,-0.4009,-0.4031,-0.408,-0.4105,-0.4134,-0.4174,-0.4192,-0.4226,-0.4252,-0.4299,-0.4308,-0.4333,-0.4355,-0.4371,-0.4381,-0.4378,-0.438,-0.4378,-0.4413,-0.4406,-0.4408,-0.4392,-0.4393,-0.4393,-0.4409,0,-0.3955,-0.4009,-0.4037,-0.4079,-0.4109,-0.4135,-0.416,-0.4193,-0.4217,-0.4245,-0.4273,-0.4305,-0.4314,-0.4329,-0.4347,-0.4376,-0.4389,-0.4375,-0.4416,-0.4418,-0.4406,-0.4411,-0.4404,-0.4418,-0.4412,-0.4412,-0.4413,0,-0.3981,-0.4014,-0.4058,-0.4102,-0.4115,-0.4138,-0.4176,-0.4203,-0.424,-0.4256,-0.4283,-0.4304,-0.4335,-0.4338,-0.4382,-0.4372,-0.439,-0.4407,-0.4408,-0.4414,-0.4416,-0.4417,-0.4423,-0.4425,-0.4417,-0.4417,-0.4416,0,-0.3972,-0.4028,-0.4061,-0.4079,-0.4131,-0.4146,-0.4168,-0.4205,-0.4226,-0.426,-0.4274,-0.431,-0.433,-0.4358,-0.4388,-0.4387,-0.4429,-0.4434,-0.4443,-0.4443,-0.4452,-0.4451,-0.4461,-0.4463,-0.4463,-0.4463,-0.4462,0,-0.3987,-0.4013,-0.4058,-0.4079,-0.4108,-0.414,-0.4169,-0.4193,-0.4225,-0.425,-0.4275,-0.4298,-0.4337,-0.4365,-0.4388,-0.4421,-0.443,-0.4444,-0.445,-0.4442,-0.444,-0.4455,-0.4455,-0.4463,-0.4463,-0.4463,-0.4463,0,-0.3983,-0.4014,-0.4053,-0.4098,-0.4109,-0.4129,-0.4168,-0.4189,-0.4213,-0.4245,-0.4255,-0.4294,-0.4328,-0.436,-0.4406,-0.4422,-0.4454,-0.4462,-0.4442,-0.4445,-0.4453,-0.4452,-0.4473,-0.4478,-0.4476,-0.4476,-0.4476,0,-0.3991,-0.4012,-0.4058,-0.4077,-0.4098,-0.4128,-0.415,-0.4181,-0.4203,-0.4245,-0.4261,-0.4296,-0.4327,-0.438,-0.4412,-0.4447,-0.4456,-0.4461,-0.4462,-0.4453,-0.4457,-0.4455,-0.4457,-0.4461,-0.4461,-0.4461,-0.4461,0,-0.4001,-0.4015,-0.4045,-0.408,-0.4105,-0.4134,-0.4165,-0.4178,-0.4215,-0.4238,-0.4273,-0.4296,-0.4342,-0.4377,-0.4415,-0.4439,-0.4456,-0.446,-0.4464,-0.4456,-0.4444,-0.4451,-0.444,-0.446,-0.446,-0.446,-0.446,-0.446,-0.4004,-0.4023,-0.4058,-0.409,-0.4116,-0.4143,-0.4164,-0.4191,-0.422,-0.426,-0.4276,-0.4311,-0.4346,-0.4399,-0.4422,-0.4449,-0.4453,-0.4459,-0.4461,-0.4462,-0.446,-0.4438,-0.4456,-0.4456,-0.4457,-0.4457,-0.4457,0,-0.4015,-0.4039,-0.4068,-0.4109,-0.4134,-0.4146,-0.418,-0.42,-0.423,-0.4261,-0.429,-0.4329,-0.4362,-0.4397,-0.4432,-0.4448,-0.4456,-0.4456,-0.4455,-0.446,-0.4455,-0.4448,-0.4448,-0.4448,-0.4448,-0.4448,-0.4448,-0.4448,-0.4024,-0.4057,-0.4074,-0.4119,-0.4143,-0.4176,-0.4194,-0.4219,-0.4244,-0.4286,-0.4314,-0.4335,-0.4367,-0.4405,-0.4436,-0.4445,-0.4457,-0.4455,-0.4466,-0.446,-0.4461,-0.4461,-0.4455,-0.4457,-0.4457,-0.4469,-0.4469,-0.447]}]]